WB4FAY-4 Weather Reports


Display with metric or nautical units.
time (UTC)temp
F
wind
direction
speed
MPH
gust
MPH
rain 1hr
in
rain 24hr
in
rain mn
in
humidity
%
barometer
mb
20260904215517 96 76 3.0 4.0 0.00 0.00 0.00 41 1014.3
20260904215017 96 97 2.0 9.0 0.00 0.00 0.00 41 1014.2
20260904214517 96 61 0.0 6.0 0.00 0.00 0.00 41 1014.3
20260904214017 97 59 0.0 7.0 0.00 0.00 0.00 42 1014.3
20260904213517 97 99 0.0 13.0 0.00 0.00 0.00 40 1014.3
20260904213017 98 100 1.0 9.0 0.00 0.00 0.00 39 1014.3
20260904212517 98 85 2.0 9.0 0.00 0.00 0.00 39 1014.3
20260904212017 98 86 3.0 6.0 0.00 0.00 0.00 38 1014.3
20260904211516 99 27 3.0 8.0 0.00 0.00 0.00 38 1014.3
20260904211017 99 80 4.0 9.0 0.00 0.00 0.00 38 1014.3
20260904210517 99 76 2.0 7.0 0.00 0.00 0.00 39 1014.3
20260904210018 99 99 1.0 7.0 0.00 0.00 0.00 38 1014.4
20260904205517 99 80 4.0 8.0 0.00 0.00 0.00 38 1014.4
20260904205018 99 78 2.0 8.0 0.00 0.00 0.00 38 1014.4
20260904204517 99 42 0.0 4.0 0.00 0.00 0.00 38 1014.4
20260904204017 99 85 4.0 12.0 0.00 0.00 0.00 38 1014.4
20260904203517 99 85 1.0 7.0 0.00 0.00 0.00 38 1014.4
20260904203017 98 95 0.0 10.0 0.00 0.00 0.00 39 1014.6
20260904202517 98 41 6.0 11.0 0.00 0.00 0.00 39 1014.7
20260904202017 98 38 4.0 7.0 0.00 0.00 0.00 39 1014.7
20260904201517 99 82 0.0 10.0 0.00 0.00 0.00 39 1014.8
20260904201017 98 76 1.0 9.0 0.00 0.00 0.00 39 1014.9
20260904200517 98 96 4.0 8.0 0.00 0.00 0.00 40 1014.9
20260904200017 97 73 2.0 5.0 0.00 0.00 0.00 39 1015.1
20260904195517 97 169 2.0 6.0 0.00 0.00 0.00 41 1015.2
20260904195017 96 155 4.0 12.0 0.00 0.00 0.00 42 1015.2
20260904194517 96 82 3.0 8.0 0.00 0.00 0.00 43 1015.3
20260904194017 96 79 5.0 6.0 0.00 0.00 0.00 44 1015.3
20260904193517 96 54 1.0 7.0 0.00 0.00 0.00 45 1015.4
20260904193017 96 93 3.0 10.0 0.00 0.00 0.00 44 1015.6
20260904192518 96 47 4.0 7.0 0.00 0.00 0.00 42 1015.7
20260904192017 96 114 3.0 10.0 0.00 0.00 0.00 42 1015.8
20260904191518 96 90 6.0 11.0 0.00 0.00 0.00 43 1016.0
20260904191017 95 27 2.0 6.0 0.00 0.00 0.00 45 1016.0
20260904190518 95 68 0.0 9.0 0.00 0.00 0.00 45 1016.1
20260904190017 95 92 4.0 8.0 0.00 0.00 0.00 44 1016.2
20260904185517 96 73 2.0 9.0 0.00 0.00 0.00 45 1016.1
20260904185017 95 93 3.0 10.0 0.00 0.00 0.00 46 1016.3
20260904184517 95 92 3.0 8.0 0.00 0.00 0.00 45 1016.3
20260904184017 95 83 5.0 8.0 0.00 0.00 0.00 46 1016.5
20260904183517 95 73 3.0 11.0 0.00 0.00 0.00 46 1016.5
20260904183018 95 59 5.0 8.0 0.00 0.00 0.00 46 1016.5
20260904182517 95 78 1.0 11.0 0.00 0.00 0.00 46 1016.7
20260904182017 95 99 2.0 6.0 0.00 0.00 0.00 46 1016.7
20260904181517 95 102 0.0 10.0 0.00 0.00 0.00 45 1016.8
20260904181017 95 45 6.0 7.0 0.00 0.00 0.00 45 1016.9
20260904180517 96 10 4.0 7.0 0.00 0.00 0.00 46 1017.0
20260904180017 95 96 2.0 7.0 0.00 0.00 0.00 47 1017.0
20260904175518 95 40 3.0 10.0 0.00 0.00 0.00 46 1017.1
20260904175017 95 72 9.0 5.0 0.00 0.00 0.00 47 1017.1
20260904174518 95 65 2.0 7.0 0.00 0.00 0.00 47 1017.1
20260904174017 94 86 3.0 6.0 0.00 0.00 0.00 47 1017.2
20260904173517 95 71 2.0 7.0 0.00 0.00 0.00 48 1017.3
20260904173018 95 172 1.0 10.0 0.00 0.00 0.00 48 1017.4
20260904172517 94 78 6.0 7.0 0.00 0.00 0.00 48 1017.5
20260904172017 94 99 1.0 8.0 0.00 0.00 0.00 48 1017.5
20260904171517 94 85 5.0 5.0 0.00 0.00 0.00 49 1017.6
20260904171017 94 200 3.0 8.0 0.00 0.00 0.00 48 1017.7
20260904170517 94 109 4.0 5.0 0.00 0.00 0.00 49 1017.6
20260904170017 93 37 2.0 9.0 0.00 0.00 0.00 50 1017.7
20260904165517 93 83 2.0 7.0 0.00 0.00 0.00 51 1017.7
20260904165017 93 90 0.0 7.0 0.00 0.00 0.00 51 1017.7
20260904164517 92 1 2.0 4.0 0.00 0.00 0.00 52 1017.7
20260904164017 92 86 4.0 8.0 0.00 0.00 0.00 51 1017.8
20260904163517 92 196 2.0 3.0 0.00 0.00 0.00 52 1017.9
20260904163017 92 71 1.0 6.0 0.00 0.00 0.00 52 1018.0
20260904162517 91 59 3.0 5.0 0.00 0.00 0.00 54 1018.1
20260904162017 91 96 0.0 8.0 0.00 0.00 0.00 54 1018.1
20260904161517 91 88 8.0 8.0 0.00 0.00 0.00 55 1018.2
20260904161017 90 85 0.0 7.0 0.00 0.00 0.00 57 1018.2
20260904160517 90 109 0.0 3.0 0.00 0.00 0.00 57 1018.3
20260904160017 90 25 1.0 4.0 0.00 0.00 0.00 56 1018.2
20260904155517 91 96 2.0 7.0 0.00 0.00 0.00 56 1018.2
20260904155017 90 280 0.0 4.0 0.00 0.00 0.00 58 1018.1
20260904154518 90 0 0.0 0.0 0.00 0.00 0.00 58 1018.1
20260904154017 90 343 0.0 0.0 0.00 0.00 0.00 58 1018.1
20260904153517 89 342 0.0 4.0 0.00 0.00 0.00 60 1018.0
20260904153017 89 335 2.0 2.0 0.00 0.00 0.00 63 1018.1
20260904152517 89 343 0.0 0.0 0.00 0.00 0.00 63 1018.0
20260904152016 88 54 0.0 2.0 0.00 0.00 0.00 61 1018.0
20260904151517 88 56 1.0 4.0 0.00 0.00 0.00 61 1018.0
20260904151017 88 0 0.0 0.0 0.00 0.00 0.00 61 1018.0
20260904150518 88 62 0.0 4.0 0.00 0.00 0.00 62 1018.0
20260904150017 88 95 2.0 4.0 0.00 0.00 0.00 62 1017.9
20260904145517 87 0 0.0 0.0 0.00 0.00 0.00 63 1017.9
20260904145017 87 0 0.0 0.0 0.00 0.00 0.00 64 1017.8
20260904144517 86 72 0.0 3.0 0.00 0.00 0.00 65 1017.7
20260904144017 86 292 1.0 2.0 0.00 0.00 0.00 65 1017.8
20260904143517 86 240 0.0 4.0 0.00 0.00 0.00 65 1017.8
20260904143017 86 0 0.0 0.0 0.00 0.00 0.00 65 1017.8
20260904142517 85 198 0.0 3.0 0.00 0.00 0.00 68 1017.8
20260904142017 85 200 2.0 3.0 0.00 0.00 0.00 69 1017.8
20260904141517 84 206 1.0 3.0 0.00 0.00 0.00 69 1017.8
20260904141017 84 144 1.0 2.0 0.00 0.00 0.00 71 1017.9
20260904140517 84 96 0.0 2.0 0.00 0.00 0.00 72 1017.9
20260904140017 83 112 1.0 4.0 0.00 0.00 0.00 72 1017.8
20260904135517 83 110 2.0 5.0 0.00 0.00 0.00 73 1017.8
20260904135017 82 120 3.0 3.0 0.00 0.00 0.00 75 1017.8
20260904134517 82 73 0.0 1.0 0.00 0.00 0.00 76 1017.9
20260904134017 82 75 0.0 2.0 0.00 0.00 0.00 76 1017.9
20260904133517 82 100 1.0 4.0 0.00 0.00 0.00 76 1017.9
20260904133017 82 103 1.0 3.0 0.00 0.00 0.00 77 1017.8
20260904132522 81 121 3.0 3.0 0.00 0.00 0.00 78 1017.8
20260904132016 81 89 1.0 3.0 0.00 0.00 0.00 78 1017.8
20260904131517 81 96 1.0 3.0 0.00 0.00 0.00 79 1017.8
20260904131017 80 78 0.0 4.0 0.00 0.00 0.00 80 1017.8
20260904130517 80 73 2.0 4.0 0.00 0.00 0.00 81 1017.8
20260904130017 80 59 2.0 2.0 0.00 0.00 0.00 83 1017.8
20260904125517 79 92 0.0 3.0 0.00 0.00 0.00 83 1017.6
20260904125018 79 110 1.0 2.0 0.00 0.00 0.00 84 1017.6
20260904124517 78 48 1.0 2.0 0.00 0.00 0.00 85 1017.6
20260904124017 78 109 1.0 5.0 0.00 0.00 0.00 86 1017.6
20260904123517 78 107 1.0 3.0 0.00 0.00 0.00 86 1017.6
20260904123017 77 97 1.0 4.0 0.00 0.00 0.00 87 1017.5
20260904122517 77 72 2.0 2.0 0.00 0.00 0.00 88 1017.4
20260904122016 77 0 0.0 0.0 0.00 0.00 0.00 88 1017.4
20260904121517 77 0 0.0 0.0 0.00 0.00 0.00 88 1017.3
20260904121017 77 0 0.0 0.0 0.00 0.00 0.00 88 1017.3
20260904120517 77 0 0.0 0.0 0.00 0.00 0.00 88 1017.3
20260904120017 77 0 0.0 0.0 0.00 0.00 0.00 88 1017.2
20260904115517 76 0 0.0 0.0 0.00 0.00 0.00 88 1017.2
20260904115017 76 0 0.0 0.0 0.00 0.00 0.00 88 1017.1
20260904114517 77 0 0.0 0.0 0.00 0.00 0.00 88 1017.1
20260904114017 77 315 0.0 3.0 0.00 0.00 0.00 88 1017.2
20260904113517 77 0 0.0 0.0 0.00 0.00 0.00 88 1017.1
20260904113017 77 0 0.0 0.0 0.00 0.00 0.00 88 1017.1
20260904112518 77 0 0.0 0.0 0.00 0.00 0.00 87 1017.0
20260904112017 77 0 0.0 0.0 0.00 0.00 0.00 87 1017.0
20260904111516 77 0 0.0 0.0 0.00 0.00 0.00 87 1016.9
20260904111017 77 0 0.0 0.0 0.00 0.00 0.00 87 1016.9
20260904110517 77 0 0.0 0.0 0.00 0.00 0.00 87 1016.8
20260904110017 77 0 0.0 0.0 0.00 0.00 0.00 87 1016.8
20260904105517 77 0 0.0 0.0 0.00 0.00 0.00 87 1016.7
20260904105017 77 0 0.0 0.0 0.00 0.00 0.00 86 1016.7
20260904104516 77 0 0.0 0.0 0.00 0.00 0.00 86 1016.6
20260904104018 78 0 0.0 0.0 0.00 0.00 0.00 86 1016.7
20260904103517 78 0 0.0 0.0 0.00 0.00 0.00 86 1016.7
20260904103017 78 0 0.0 0.0 0.00 0.00 0.00 86 1016.7
20260904102517 78 0 0.0 0.0 0.00 0.00 0.00 86 1016.6
20260904102017 78 0 0.0 0.0 0.00 0.00 0.00 86 1016.6
20260904101517 78 0 0.0 0.0 0.00 0.00 0.00 86 1016.6
20260904101017 78 0 0.0 0.0 0.00 0.00 0.00 85 1016.6
20260904100517 78 0 0.0 0.0 0.00 0.00 0.00 85 1016.5
20260904100017 78 0 0.0 0.0 0.00 0.00 0.00 85 1016.5
20260904095518 78 0 0.0 0.0 0.00 0.00 0.00 85 1016.5
20260904095017 78 0 0.0 0.0 0.00 0.00 0.00 85 1016.5
20260904094517 78 0 0.0 0.0 0.00 0.00 0.00 85 1016.5
20260904094017 78 0 0.0 0.0 0.00 0.00 0.00 85 1016.4
20260904093517 78 0 0.0 0.0 0.00 0.00 0.00 85 1016.4
20260904093017 78 0 0.0 0.0 0.00 0.00 0.00 84 1016.4
20260904092517 78 0 0.0 0.0 0.00 0.00 0.00 84 1016.4
20260904092018 78 0 0.0 0.0 0.00 0.00 0.00 84 1016.4
20260904091517 79 0 0.0 0.0 0.00 0.00 0.00 84 1016.4
20260904091017 79 0 0.0 0.0 0.00 0.00 0.00 84 1016.4
20260904090518 79 0 0.0 0.0 0.00 0.00 0.00 84 1016.5
20260904090017 79 0 0.0 0.0 0.00 0.00 0.00 84 1016.5
20260904085517 79 0 0.0 0.0 0.00 0.00 0.00 84 1016.5
20260904085017 79 0 0.0 0.0 0.00 0.00 0.00 83 1016.4
20260904084517 79 0 0.0 0.0 0.00 0.00 0.00 83 1016.4
20260904084017 79 0 0.0 0.0 0.00 0.00 0.00 83 1016.4
20260904083517 79 0 0.0 0.0 0.00 0.00 0.00 83 1016.4
20260904083017 79 0 0.0 0.0 0.00 0.00 0.00 83 1016.5
20260904082517 80 0 0.0 0.0 0.00 0.00 0.00 82 1016.5
20260904082017 80 0 0.0 0.0 0.00 0.00 0.00 82 1016.5
20260904081518 80 0 0.0 0.0 0.00 0.00 0.00 82 1016.5
20260904081017 80 0 0.0 0.0 0.00 0.00 0.00 82 1016.5
20260904080517 80 0 0.0 0.0 0.00 0.00 0.00 82 1016.6
20260904080017 80 0 0.0 0.0 0.00 0.00 0.00 81 1016.6
20260904075517 80 0 0.0 0.0 0.00 0.00 0.00 81 1016.5
20260904075017 80 0 0.0 0.0 0.00 0.00 0.00 81 1016.6
20260904074518 80 0 0.0 0.0 0.00 0.00 0.00 80 1016.6
20260904074017 80 0 0.0 0.0 0.00 0.00 0.00 80 1016.6
20260904073517 81 0 0.0 0.0 0.00 0.00 0.00 80 1016.7
20260904073017 81 0 0.0 0.0 0.00 0.00 0.00 80 1016.7
20260904072517 80 0 0.0 0.0 0.00 0.00 0.00 80 1016.6
20260904072017 80 0 0.0 0.0 0.00 0.00 0.00 80 1016.6
20260904071517 80 35 0.0 1.0 0.00 0.00 0.00 80 1016.6
20260904071017 80 0 0.0 0.0 0.00 0.00 0.00 80 1016.5
20260904070517 80 95 0.0 3.0 0.00 0.00 0.00 80 1016.5
20260904070017 80 88 0.0 3.0 0.00 0.00 0.00 80 1016.5
20260904065517 80 126 1.0 2.0 0.00 0.00 0.00 80 1016.5
20260904065017 81 136 0.0 2.0 0.00 0.00 0.00 80 1016.6
20260904064517 80 88 2.0 3.0 0.00 0.00 0.00 80 1016.5
20260904064017 80 97 1.0 5.0 0.00 0.00 0.00 81 1016.5
20260904063516 80 93 1.0 3.0 0.00 0.00 0.00 81 1016.6
20260904063017 80 75 0.0 2.0 0.00 0.00 0.00 81 1016.6
20260904062516 80 96 1.0 4.0 0.00 0.00 0.00 81 1016.7
20260904062017 80 52 0.0 1.0 0.00 0.00 0.00 82 1016.7
20260904061517 80 0 0.0 0.0 0.00 0.00 0.00 82 1016.7
20260904061017 80 0 0.0 0.0 0.00 0.00 0.00 82 1016.6
20260904060517 80 0 0.0 0.0 0.00 0.00 0.00 82 1016.7
20260904060017 80 0 0.0 0.0 0.00 0.00 0.00 82 1016.7
20260904055518 80 0 0.0 0.0 0.00 0.00 0.00 82 1016.7
20260904055017 80 0 0.0 0.0 0.00 0.00 0.00 81 1016.7
20260904054517 81 0 0.0 0.0 0.00 0.00 0.00 81 1016.7
20260904054017 81 0 0.0 0.0 0.00 0.00 0.00 81 1016.6
20260904053517 81 0 0.0 0.0 0.00 0.00 0.00 81 1016.7
20260904053017 80 0 0.0 0.0 0.00 0.00 0.00 81 1016.7
20260904052516 81 0 0.0 0.0 0.00 0.00 0.00 80 1016.8
20260904052017 81 0 0.0 0.0 0.00 0.00 0.00 80 1016.9
20260904051517 81 0 0.0 0.0 0.00 0.00 0.00 80 1016.8
20260904051017 81 0 0.0 0.0 0.00 0.00 0.00 79 1016.7
20260904050517 81 0 0.0 0.0 0.00 0.00 0.00 79 1016.7
20260904050017 81 0 0.0 0.0 0.00 0.00 0.00 78 1016.7
20260904045517 82 0 0.0 0.0 0.00 0.00 0.00 78 1016.7
20260904045017 82 0 0.0 0.0 0.00 0.00 0.00 78 1016.8
20260904044517 82 0 0.0 0.0 0.00 0.00 0.00 77 1016.7
20260904044017 82 0 0.0 0.0 0.00 0.00 0.00 77 1016.7
20260904043517 82 0 0.0 0.0 0.00 0.00 0.00 77 1016.7
20260904043017 82 0 0.0 0.0 0.00 0.00 0.00 76 1016.6
20260904042518 82 0 0.0 0.0 0.00 0.00 0.00 76 1016.7
20260904042017 83 0 0.0 0.0 0.00 0.00 0.00 76 1016.8
20260904041517 82 0 0.0 0.0 0.00 0.00 0.00 75 1016.8
20260904041017 83 0 0.0 0.0 0.00 0.00 0.00 75 1016.9
20260904040517 83 0 0.0 0.0 0.00 0.00 0.00 75 1016.8
20260904040017 83 0 0.0 0.0 0.00 0.00 0.00 74 1016.8
20260904035518 83 0 0.0 0.0 0.00 0.00 0.00 74 1016.9
20260904035017 83 0 0.0 0.0 0.00 0.00 0.00 73 1016.8
20260904034518 84 0 0.0 0.0 0.00 0.00 0.00 73 1016.8
20260904034017 84 0 0.0 0.0 0.00 0.00 0.00 72 1016.8
20260904033517 84 0 0.0 0.0 0.00 0.00 0.00 72 1016.9
20260904033017 84 0 0.0 0.0 0.00 0.00 0.00 72 1016.9
20260904032517 84 0 0.0 0.0 0.00 0.00 0.00 71 1016.9
20260904032018 84 0 0.0 0.0 0.00 0.00 0.00 71 1016.9
20260904031517 84 116 0.0 2.0 0.00 0.00 0.00 72 1016.9
20260904031017 84 0 0.0 0.0 0.00 0.00 0.00 72 1016.8
20260904030518 84 0 0.0 0.0 0.00 0.00 0.00 72 1016.8
20260904030017 84 0 0.0 0.0 0.00 0.00 0.00 72 1016.9
20260904025517 84 0 0.0 0.0 0.00 0.00 0.00 71 1016.9
20260904025017 84 0 0.0 0.0 0.00 0.00 0.00 71 1017.0
20260904024517 84 0 0.0 0.0 0.00 0.00 0.00 70 1017.0
20260904024017 84 0 0.0 0.0 0.00 0.00 0.00 70 1017.0
20260904023517 84 0 0.0 0.0 0.00 0.00 0.00 70 1017.0
20260904023017 84 90 0.0 1.0 0.00 0.00 0.00 70 1017.0
20260904022517 84 82 0.0 2.0 0.00 0.00 0.00 70 1016.9
20260904022017 85 0 0.0 0.0 0.00 0.00 0.00 70 1016.9
20260904021517 85 0 0.0 0.0 0.00 0.00 0.00 69 1016.9
20260904021017 85 212 0.0 1.0 0.00 0.00 0.00 70 1016.8
20260904020517 85 226 0.0 1.0 0.00 0.00 0.00 69 1016.8
20260904020018 85 0 0.0 0.0 0.00 0.00 0.00 69 1016.7
20260904015517 85 0 0.0 0.0 0.00 0.00 0.00 69 1016.7
20260904015017 85 0 0.0 0.0 0.00 0.00 0.00 68 1016.7
20260904014517 85 0 0.0 0.0 0.00 0.00 0.00 68 1016.7
20260904014018 86 0 0.0 0.0 0.00 0.00 0.00 67 1016.6
20260904013517 86 0 0.0 0.0 0.00 0.00 0.00 67 1016.5
20260904013017 86 0 0.0 0.0 0.00 0.00 0.00 66 1016.5
20260904012518 87 0 0.0 0.0 0.00 0.00 0.00 66 1016.4
20260904012017 87 0 0.0 0.0 0.00 0.00 0.00 65 1016.4
20260904011517 87 0 0.0 0.0 0.00 0.00 0.00 64 1016.4
20260904011017 87 0 0.0 0.0 0.00 0.00 0.00 64 1016.4
20260904010517 87 0 0.0 0.0 0.00 0.00 0.00 64 1016.2
20260904010017 87 0 0.0 0.0 0.00 0.00 0.00 63 1016.2
20260904005517 88 0 0.0 0.0 0.00 0.00 0.00 63 1016.1
20260904005017 88 0 0.0 0.0 0.00 0.00 0.00 62 1016.1
20260904004517 88 0 0.0 0.0 0.00 0.00 0.00 61 1016.1
20260904004017 89 0 0.0 0.0 0.00 0.00 0.00 60 1016.1
20260904003517 89 0 0.0 0.0 0.00 0.00 0.00 59 1016.1
20260904003016 89 0 0.0 0.0 0.00 0.00 0.00 59 1016.0
20260904002517 89 0 0.0 0.0 0.00 0.00 0.00 58 1016.0
20260904002017 90 209 0.0 1.0 0.00 0.00 0.00 58 1015.8
20260904001517 89 241 0.0 4.0 0.00 0.00 0.00 58 1015.8
20260904001017 89 0 0.0 0.0 0.00 0.00 0.00 59 1015.8
20260904000517 89 0 0.0 0.0 0.00 0.00 0.00 59 1015.7
20260904000017 89 0 0.0 0.0 0.00 0.00 0.00 58 1015.7
20260903235517 90 0 0.0 0.0 0.00 0.00 0.00 58 1015.7
20260903235017 90 0 0.0 0.0 0.00 0.00 0.00 57 1015.6
20260903234516 90 0 0.0 0.0 0.00 0.00 0.00 56 1015.6
20260903234017 91 0 0.0 0.0 0.00 0.00 0.00 56 1015.5
20260903233517 91 0 0.0 0.0 0.00 0.00 0.00 56 1015.5
20260903233017 91 0 0.0 0.0 0.00 0.00 0.00 55 1015.6
20260903232517 91 0 0.0 0.0 0.00 0.00 0.00 55 1015.6
20260903232018 92 0 0.0 0.0 0.00 0.00 0.00 55 1015.5
20260903231517 92 0 0.0 0.0 0.00 0.00 0.00 54 1015.5
20260903231017 92 120 0.0 2.0 0.00 0.00 0.00 53 1015.6
20260903230517 92 0 0.0 0.0 0.00 0.00 0.00 54 1015.6
20260903230017 92 45 0.0 1.0 0.00 0.00 0.00 53 1015.5
20260903225517 93 90 0.0 3.0 0.00 0.00 0.00 52 1015.4
20260903225017 93 97 0.0 2.0 0.00 0.00 0.00 51 1015.4
20260903224517 93 0 1.0 0.0 0.00 0.00 0.00 50 1015.3
20260903224017 94 102 0.0 3.0 0.00 0.00 0.00 49 1015.3
20260903223517 94 93 0.0 1.0 0.00 0.00 0.00 48 1015.3
20260903223017 95 64 0.0 6.0 0.00 0.00 0.00 47 1015.4
20260903222517 95 82 2.0 5.0 0.00 0.00 0.00 46 1015.4
20260903222018 95 65 0.0 6.0 0.00 0.00 0.00 47 1015.3
20260903221517 95 65 0.0 4.0 0.00 0.00 0.00 45 1015.2
20260903221018 95 11 1.0 2.0 0.00 0.00 0.00 45 1015.1
20260903220517 95 120 0.0 4.0 0.00 0.00 0.00 45 1015.1
20260903220017 95 80 0.0 5.0 0.00 0.00 0.00 45 1015.1